TimeEST,TemperatureF,Dew PointF,Humidity,Sea Level PressureIn,VisibilityMPH,Wind Direction,Wind SpeedMPH,Gust SpeedMPH,PrecipitationIn,Events,Conditions,WindDirDegrees,DateUTC
12:53 AM,69.1,62.1,78,29.92,10.0,NNW,3.5,-,N/A,,Clear,330,2012-11-06 05:53:00
1:53 AM,68.0,63.0,84,29.91,10.0,NE,5.8,-,N/A,,Clear,40,2012-11-06 06:53:00
2:53 AM,66.0,63.0,90,29.89,9.0,ESE,3.5,-,N/A,,Clear,120,2012-11-06 07:53:00
3:53 AM,66.9,63.0,87,29.90,10.0,SSE,4.6,-,N/A,,Overcast,160,2012-11-06 08:53:00
4:53 AM,66.0,62.1,87,29.90,10.0,South,4.6,-,N/A,,Mostly Cloudy,180,2012-11-06 09:53:00
5:53 AM,66.0,62.1,87,29.89,10.0,South,4.6,-,N/A,,Clear,190,2012-11-06 10:53:00
6:53 AM,68.0,64.0,87,29.90,10.0,Calm,Calm,-,N/A,,Partly Cloudy,0,2012-11-06 11:53:00
7:53 AM,68.0,64.9,90,29.91,5.0,Calm,Calm,-,0.05,Rain,Light Rain,0,2012-11-06 12:53:00
8:12 AM,68.0,64.4,88,29.91,5.0,Calm,Calm,-,0.03,Rain-Thunderstorm,Light Rain,0,2012-11-06 13:12:00
8:27 AM,68.0,64.4,88,29.94,2.5,WSW,4.6,-,0.06,Rain,Heavy Rain,250,2012-11-06 13:27:00
8:43 AM,66.2,62.6,88,29.92,9.0,Calm,Calm,-,0.08,Rain,Light Rain,0,2012-11-06 13:43:00
8:53 AM,66.9,63.0,87,29.93,5.0,Calm,Calm,-,0.09,Rain,Light Rain,0,2012-11-06 13:53:00
9:53 AM,66.9,63.0,87,29.92,10.0,South,11.5,-,0.02,,Clear,180,2012-11-06 14:53:00
10:53 AM,69.1,64.0,84,29.91,10.0,South,6.9,-,N/A,,Clear,180,2012-11-06 15:53:00
11:53 AM,71.1,64.0,78,29.88,10.0,South,8.1,-,N/A,,Mostly Cloudy,170,2012-11-06 16:53:00
12:53 PM,72.0,66.0,81,29.86,10.0,SE,4.6,-,N/A,,Mostly Cloudy,140,2012-11-06 17:53:00
1:07 PM,71.6,66.2,83,29.85,10.0,SSE,6.9,-,N/A,,Mostly Cloudy,160,2012-11-06 18:07:00
1:53 PM,71.1,66.0,84,29.85,10.0,West,8.1,-,N/A,,Overcast,260,2012-11-06 18:53:00
2:53 PM,73.9,64.0,71,29.83,10.0,West,5.8,-,N/A,,Mostly Cloudy,270,2012-11-06 19:53:00
3:53 PM,73.9,62.1,66,29.83,10.0,West,8.1,-,N/A,,Clear,280,2012-11-06 20:53:00
4:53 PM,73.0,63.0,71,29.83,10.0,WNW,8.1,-,N/A,,Clear,290,2012-11-06 21:53:00
5:53 PM,72.0,62.1,71,29.84,10.0,WNW,5.8,-,N/A,,Clear,290,2012-11-06 22:53:00
6:53 PM,71.1,62.1,73,29.85,10.0,NW,4.6,-,N/A,,Mostly Cloudy,310,2012-11-06 23:53:00
7:53 PM,70.0,59.0,68,29.88,10.0,NNW,5.8,-,N/A,,Clear,330,2012-11-07 00:53:00
8:53 PM,69.1,54.0,58,29.90,10.0,NW,5.8,-,N/A,,Clear,310,2012-11-07 01:53:00
9:53 PM,68.0,54.0,61,29.90,10.0,NW,3.5,-,N/A,,Clear,310,2012-11-07 02:53:00
10:53 PM,66.9,54.0,63,29.90,10.0,NW,6.9,-,N/A,,Clear,310,2012-11-07 03:53:00
11:53 PM,66.9,54.0,63,29.88,10.0,NNW,6.9,-,N/A,,Clear,330,2012-11-07 04:53:00